NUSAT-8 (MARIE) (45018 NORAD) Tracking and Keplerian Element Data

This shows tracking and keplerian element data for the satellite.

Feedback or suggestion? Click here.




ElementValue
Catalog45018
NameNUSAT-8 (MARIE)
Epoch Orbit1113
Epoch Day88.0922553
Epoch Year2020
RAAN155.7287
Inclination97.3264
Eccentricity0.0012783
Argument of Perigee20.7935
Mean Anonmoly339.3821
Mean Motion15.27167175
Decay Rate9.03E-06
L11 45018U 20003C 20088.09225530 .00000903 00000-0 36561-4 0 9994
L22 45018 97.3264 155.7287 0012783 20.7935 339.3821 15.27167175 11130

Live tracking and technical data element details for NUSAT-8 (MARIE) (NORAD 45018). NUSAT-8 (MARIE) can be tracked NOW for your location showing map with azimuth and elevation plus other details from your city location.

Track the satellite on the map from your city or location and see movement details for azimuth, elevation, latitude, longitude, range, height, and movement on the map or in text.







IsCatalogInMostPopularTable: catalog: 45018, numindb: 21
Update: records affected: 1



GetName: 45018 NUSAT-8 (MARIE)

Hit Count: updated at: Sat, 28 Mar 2020 20:00:18 GMT